Content
SEND FEEDBACK

Daily
Averages
Monthly
Summary
French Polynesia

PAPEETE, FRENCH POLYNESIA


Home > Oceania > French Polynesia
Elevation: 7 feet     Latitude: 17 33S     Longitude: 149 36W

WEATHER
 
SELECT A DAY
Number of Records: 213,053;   Date Range: 6/30/96 - 9/29/14
 
SHARE

PRINT THIS DATA

[ ← Previous Day ]
WEATHER ALMANAC - MARCH 25, 2013
[ Next Day → ]
[ °C ]   °F
Weather ElementAverageHighLow
Temperature82.9 °F88 °F (2:00 pm)76 °F (5:00 am)
Dewpoint73.1 °F75.2 °F (10:30 am)69.8 °F (3:30 am)
Humidity71.4 %83 % (2:00 am)57 % (11:00 am)
Barometer29.84 in29.91 in (8:00 am)29.77 in (3:00 pm)
Wind Speed4.8 mph20.1 mph (2:00 pm)
Weather ElementAverage
Visibility8.3 mi
Wind DirectionSSE (160.4 °)

Weather ElementTotal
Precipitation---
Cooling Degree Days17 (Base 65)
Growing Degree Days32 (Base 50)
Averaged from 54 records on March 25, 2013
WEATHER CONDITIONS BREAKOUT
WIND DIRECTION BREAKOUT
WEATHER BY HOUR - MARCH 25, 2013
[ °C ]   °F
Local TimeTemperatureDewpointHumidityBarometerVisibilityWind DirectionWind SpeedGust SpeedPrecipitationEventsConditions
12:30 AM78.8 °F71.6 °F78 %29.86 in6.2 miEast (100°)3.5 mphPartly Cloudy
1:00 AM78.8 °F71.6 °F78 %29.86 in6.2 miSouth (170°)1.2 mphPartly Cloudy
1:30 AM78.8 °F71.6 °F78 %29.86 in6.2 miEast (100°)3.5 mphPartly Cloudy
2:00 AM78.0 °F71.0 °F74 %29.86 in12.0 miEast (90°)2.3 mphScattered Clouds
2:00 AM77.0 °F71.6 °F83 %29.86 in6.2 miVariable2.3 mphPartly Cloudy
2:30 AM77.0 °F71.6 °F83 %29.83 in6.2 miVariable1.2 mphPartly Cloudy
3:00 AM78.8 °F71.6 °F78 %29.83 in6.2 miVariable2.3 mphPartly Cloudy
3:30 AM78.8 °F69.8 °F74 %29.83 in6.2 miVariable1.2 mph
4:00 AM77.0 °F69.8 °F78 %29.83 in6.2 miCalm
4:30 AM77.0 °F69.8 °F78 %29.83 in6.2 miVariable2.3 mph
5:00 AM76.0 °F70.0 °F77 %29.86 in37.0 miCalmClear
5:00 AM77.0 °F69.8 °F78 %29.83 in6.2 miCalm
6:00 AM77.0 °F71.6 °F83 %29.86 in6.2 miSE (140°)1.2 mphPartly Cloudy
6:30 AM77.0 °F71.6 °F83 %29.86 in6.2 miCalmPartly Cloudy
7:00 AM78.8 °F71.6 °F78 %29.86 in6.2 miSSE (160°)3.5 mphPartly Cloudy
7:30 AM82.4 °F71.6 °F70 %29.89 in6.2 miSouth (180°)3.5 mphPartly Cloudy
8:00 AM83.0 °F74.0 °F66 %29.91 in25.0 miSSW (200°)4.6 mphPartly Cloudy
8:00 AM82.4 °F73.4 °F74 %29.89 in6.2 miSSW (200°)4.6 mphPartly Cloudy
8:30 AM84.2 °F73.4 °F70 %29.89 in6.2 miSW (230°)3.5 mphPartly Cloudy
9:00 AM86.0 °F73.4 °F66 %29.89 in6.2 miVariable3.5 mphPartly Cloudy
9:30 AM86.0 °F73.4 °F66 %29.89 in6.2 miWest (270°)2.3 mphPartly Cloudy
10:00 AM86.0 °F73.4 °F66 %29.89 in6.2 miVariable2.3 mphPartly Cloudy
10:30 AM86.0 °F75.2 °F70 %29.89 in6.2 miNNW (330°)3.5 mphPartly Cloudy
11:00 AM87.0 °F74.0 °F57 %29.88 in25.0 miNNW (330°)4.6 mphScattered Clouds
11:00 AM86.0 °F73.4 °F66 %29.86 in6.2 miNNW (330°)4.6 mphPartly Cloudy
11:30 AM86.0 °F73.4 °F66 %29.86 in6.2 miNNW (330°)5.8 mphPartly Cloudy
12:00 PM86.0 °F71.6 °F62 %29.86 in6.2 miNNW (330°)5.8 mphPartly Cloudy
12:30 PM87.8 °F73.4 °F62 %29.83 in6.2 miNW (310°)5.8 mphPartly Cloudy
1:00 PM87.8 °F75.2 °F66 %29.83 in6.2 miWest (280°)8.1 mphPartly Cloudy
1:30 PM87.8 °F75.2 °F66 %29.80 in6.2 miWest (270°)8.1 mphPartly Cloudy
2:00 PM88.0 °F75.0 °F57 %29.81 in22.0 miWest (280°)20.1 mphPartly Cloudy
2:00 PM87.8 °F75.2 °F66 %29.80 in6.2 miWest (280°)10.4 mphScattered Clouds
2:30 PM87.8 °F73.4 °F62 %29.80 in6.2 miWest (280°)10.4 mphScattered Clouds
3:00 PM87.8 °F73.4 °F62 %29.77 in6.2 miNW (310°)5.8 mphScattered Clouds
3:30 PM87.8 °F73.4 °F62 %29.77 in6.2 miNNW (330°)4.6 mphScattered Clouds
4:00 PM87.8 °F73.4 °F62 %29.77 in6.2 miNNE (20°)5.8 mphPartly Cloudy
4:30 PM87.8 °F73.4 °F62 %29.77 in6.2 miNorth (10°)8.1 mphPartly Cloudy
5:00 PM87.0 °F75.0 °F59 %29.80 in19.0 miNorth (350°)10.4 mphScattered Clouds
5:00 PM86.0 °F75.2 °F70 %29.80 in6.2 miNorth (350°)10.4 mphPartly Cloudy
5:30 PM86.0 °F73.4 °F66 %29.80 in6.2 miNNW (340°)4.6 mphPartly Cloudy
6:00 PM84.2 °F73.4 °F70 %29.80 in6.2 miVariable2.3 mphPartly Cloudy
6:30 PM84.2 °F75.2 °F74 %29.80 in6.2 miWest (270°)6.9 mphPartly Cloudy
7:00 PM84.2 °F75.2 °F74 %29.80 in6.2 miWest (260°)8.1 mphPartly Cloudy
7:30 PM84.2 °F75.2 °F74 %29.83 in6.2 miWSW (250°)9.2 mphPartly Cloudy
8:00 PM83.0 °F75.0 °F71 %29.84 in12.0 miWSW (250°)9.2 mphScattered Clouds
8:00 PM84.2 °F75.2 °F74 %29.83 in6.2 miWSW (250°)9.2 mphPartly Cloudy
8:30 PM82.4 °F73.4 °F74 %29.83 in6.2 miVariable2.3 mphPartly Cloudy
9:00 PM80.6 °F73.4 °F79 %29.86 in6.2 miENE (60°)6.9 mphPartly Cloudy
9:30 PM80.6 °F73.4 °F79 %29.86 in6.2 miEast (80°)4.6 mphPartly Cloudy
10:00 PM82.4 °F73.4 °F74 %29.86 in6.2 miVariable3.5 mphPartly Cloudy
10:30 PM80.6 °F73.4 °F79 %29.86 in6.2 miVariable3.5 mphPartly Cloudy
11:00 PM80.0 °F73.0 °F74 %29.86 in12.0 miEast (90°)3.5 mphScattered Clouds
11:00 PM80.6 °F73.4 °F79 %29.86 in6.2 miEast (90°)3.5 mphPartly Cloudy
11:30 PM80.6 °F73.4 °F79 %29.86 in6.2 miCalmPartly Cloudy
Hourly data recorded from NTAA, located miles away from Papeete, French Polynesia







STORIES FROM OUR PARTNERS